Location: LDNL
(36.4545°S, 141.6685°E)
Time: 08:05:25
(UTC+11:00)

Vanguard 3 - Pass Details

Date: 02 December 2023
Orbit: 508 x 3239 km, 33.3° (Epoch: 21 February)

Event Time Altitude Azimuth Distance (km) Brightness Sun altitude
Rises 20:46:57 0° 262° (W) 7,140 13.5 -2.7°
Reaches altitude 10° 20:54:36 10° 279° (W) 6,179 12.5 -4.0°
Maximum altitude 21:04:35 17° 310° (NW) 5,408 11.6 -5.7°
Drops below altitude 10° 21:13:41 10° 342° (NNW) 5,483 11.2 -7.2°
Sets 21:19:53 0° 1° (N) 6,012 11.2 -8.2°
